Time,TemperatureF,DewpointF,PressureIn,WindDirection,WindDirectionDegrees,WindSpeedMPH,WindSpeedGustMPH,Humidity,HourlyPrecipIn,Conditions,Clouds,dailyrainin,SoftwareType,DateUTC
2016-02-05 00:04:00,24.0,19.0,30.35,West,273,0.0,2.0,80,-99.99,,,-99.99,,2016-02-05 05:04:00,
2016-02-05 00:14:00,24.0,19.0,30.35,NW,305,0.0,1.0,81,-99.99,,,-99.99,,2016-02-05 05:14:00,
2016-02-05 00:24:00,24.0,19.0,30.35,WNW,302,0.0,0.0,81,-99.99,,,-99.99,,2016-02-05 05:24:00,
2016-02-05 00:34:00,24.0,19.0,30.35,WNW,302,0.0,0.0,81,-99.99,,,-99.99,,2016-02-05 05:34:00,
2016-02-05 00:44:00,24.0,19.0,30.36,West,259,1.0,2.0,82,-99.99,,,-99.99,,2016-02-05 05:44:00,
2016-02-05 00:54:00,24.0,19.0,30.36,West,269,0.0,1.0,82,-99.99,,,-99.99,,2016-02-05 05:54:00,
2016-02-05 01:04:00,24.0,19.0,30.36,West,269,0.0,1.0,82,-99.99,,,-99.99,,2016-02-05 06:04:00,
2016-02-05 01:13:00,23.0,19.0,30.36,West,264,0.0,1.0,83,-99.99,,,-99.99,,2016-02-05 06:13:00,
2016-02-05 01:24:00,23.0,18.0,30.36,West,260,0.0,0.0,82,-99.99,,,-99.99,,2016-02-05 06:24:00,
2016-02-05 01:34:00,23.0,18.0,30.36,West,260,0.0,0.0,82,-99.99,,,-99.99,,2016-02-05 06:34:00,
2016-02-05 01:45:00,23.0,19.0,30.37,West,260,0.0,0.0,84,-99.99,,,-99.99,,2016-02-05 06:45:00,
2016-02-05 01:54:00,23.0,19.0,30.37,West,270,0.0,0.0,84,-99.99,,,-99.99,,2016-02-05 06:54:00,
2016-02-05 02:04:00,23.0,19.0,30.37,West,270,0.0,0.0,84,-99.99,,,-99.99,,2016-02-05 07:04:00,
2016-02-05 02:13:00,23.0,19.0,30.37,West,270,0.0,0.0,84,-99.99,,,-99.99,,2016-02-05 07:13:00,
2016-02-05 02:24:00,22.0,18.0,30.37,West,261,0.0,0.0,85,-99.99,,,-99.99,,2016-02-05 07:24:00,
2016-02-05 02:34:00,22.0,18.0,30.37,West,261,0.0,0.0,85,-99.99,,,-99.99,,2016-02-05 07:34:00,
2016-02-05 02:44:00,22.0,18.0,30.37,West,260,0.0,0.0,85,-99.99,,,-99.99,,2016-02-05 07:44:00,
2016-02-05 02:54:00,22.0,18.0,30.37,West,260,0.0,0.0,85,-99.99,,,-99.99,,2016-02-05 07:54:00,
2016-02-05 03:04:00,22.0,18.0,30.37,West,260,0.0,0.0,85,-99.99,,,-99.99,,2016-02-05 08:04:00,
2016-02-05 03:13:00,22.0,18.0,30.37,West,266,0.0,0.0,86,-99.99,,,-99.99,,2016-02-05 08:13:00,
2016-02-05 03:23:00,22.0,18.0,30.38,West,267,0.0,0.0,86,-99.99,,,-99.99,,2016-02-05 08:23:00,
2016-02-05 03:34:00,22.0,18.0,30.38,West,267,0.0,0.0,86,-99.99,,,-99.99,,2016-02-05 08:34:00,
2016-02-05 03:54:00,22.0,19.0,30.38,West,276,0.0,0.0,87,-99.99,,,-99.99,,2016-02-05 08:54:00,
2016-02-05 04:04:00,22.0,19.0,30.38,West,276,0.0,0.0,87,-99.99,,,-99.99,,2016-02-05 09:04:00,
2016-02-05 04:13:00,21.0,18.0,30.38,West,262,0.0,0.0,87,-99.99,,,-99.99,,2016-02-05 09:13:00,
2016-02-05 04:24:00,21.0,18.0,30.38,West,263,0.0,0.0,87,-99.99,,,-99.99,,2016-02-05 09:24:00,
2016-02-05 04:36:00,21.0,18.0,30.38,WNW,288,0.0,0.0,87,-99.99,,,-99.99,,2016-02-05 09:36:00,
2016-02-05 04:44:00,21.0,18.0,30.38,WNW,288,0.0,0.0,87,-99.99,,,-99.99,,2016-02-05 09:44:00,
2016-02-05 04:54:00,21.0,18.0,30.38,WNW,288,0.0,0.0,87,-99.99,,,-99.99,,2016-02-05 09:54:00,
2016-02-05 05:04:00,21.0,18.0,30.38,WNW,288,0.0,0.0,87,-99.99,,,-99.99,,2016-02-05 10:04:00,
2016-02-05 05:13:00,21.0,18.0,30.39,West,276,0.0,0.0,88,-99.99,,,-99.99,,2016-02-05 10:13:00,
2016-02-05 05:23:00,21.0,18.0,30.39,West,278,0.0,0.0,88,-99.99,,,-99.99,,2016-02-05 10:23:00,
2016-02-05 05:34:00,21.0,18.0,30.39,West,278,0.0,0.0,88,-99.99,,,-99.99,,2016-02-05 10:34:00,
2016-02-05 05:55:00,21.0,18.0,30.40,West,278,0.0,-999.0,88,-99.99,,,-99.99,,2016-02-05 10:55:00,
2016-02-05 06:04:00,21.0,18.0,30.40,West,278,0.0,0.0,88,-99.99,,,-99.99,,2016-02-05 11:04:00,
2016-02-05 06:13:00,20.0,17.0,30.40,West,278,0.0,0.0,88,-99.99,,,-99.99,,2016-02-05 11:13:00,
2016-02-05 06:23:00,20.0,17.0,30.40,West,278,0.0,0.0,89,-99.99,,,-99.99,,2016-02-05 11:23:00,
2016-02-05 06:34:00,20.0,17.0,30.40,West,278,0.0,0.0,89,-99.99,,,-99.99,,2016-02-05 11:34:00,
2016-02-05 06:44:00,20.0,17.0,30.40,West,278,0.0,0.0,89,-99.99,,,-99.99,,2016-02-05 11:44:00,
2016-02-05 06:54:00,20.0,17.0,30.41,West,278,0.0,0.0,89,-99.99,,,-99.99,,2016-02-05 11:54:00,
2016-02-05 07:04:00,20.0,17.0,30.41,West,278,0.0,0.0,89,-99.99,,,-99.99,,2016-02-05 12:04:00,
2016-02-05 07:13:00,19.0,16.0,30.42,West,278,0.0,0.0,89,-99.99,,,-99.99,,2016-02-05 12:13:00,
2016-02-05 07:24:00,19.0,16.0,30.42,East,96,0.0,0.0,89,-99.99,,,-99.99,,2016-02-05 12:24:00,
2016-02-05 07:34:00,19.0,16.0,30.42,East,96,0.0,0.0,89,-99.99,,,-99.99,,2016-02-05 12:34:00,
2016-02-05 07:44:00,19.0,16.0,30.43,East,96,0.0,0.0,89,-99.99,,,-99.99,,2016-02-05 12:44:00,
2016-02-05 07:54:00,19.0,16.0,30.44,ESE,115,0.0,0.0,89,-99.99,,,-99.99,,2016-02-05 12:54:00,
2016-02-05 08:04:00,19.0,16.0,30.44,ESE,115,0.0,0.0,89,-99.99,,,-99.99,,2016-02-05 13:04:00,
2016-02-05 08:24:00,20.0,18.0,30.44,ESE,115,0.0,1.0,90,-99.99,,,-99.99,,2016-02-05 13:24:00,
2016-02-05 08:34:00,20.0,18.0,30.44,ESE,115,0.0,1.0,90,-99.99,,,-99.99,,2016-02-05 13:34:00,
2016-02-05 08:44:00,20.0,18.0,30.44,SE,132,0.0,3.0,90,-99.99,,,-99.99,,2016-02-05 13:44:00,
2016-02-05 08:57:00,21.0,19.0,30.45,SSE,149,0.0,2.0,90,-99.99,,,-99.99,,2016-02-05 13:57:00,
2016-02-05 09:04:00,21.0,19.0,30.45,SSE,149,0.0,2.0,90,-99.99,,,-99.99,,2016-02-05 14:04:00,
2016-02-05 09:14:00,23.0,20.0,30.46,SSE,158,0.0,3.0,89,-99.99,,,-99.99,,2016-02-05 14:14:00,
2016-02-05 09:24:00,24.0,21.0,30.46,ESE,122,1.0,3.0,87,-99.99,,,-99.99,,2016-02-05 14:24:00,
2016-02-05 09:34:00,24.0,21.0,30.46,ESE,122,1.0,3.0,87,-99.99,,,-99.99,,2016-02-05 14:34:00,
2016-02-05 09:45:00,25.0,21.0,30.47,WSW,248,0.0,3.0,83,-99.99,,,-99.99,,2016-02-05 14:45:00,
2016-02-05 09:54:00,26.0,21.0,30.47,West,259,2.0,5.0,82,-99.99,,,-99.99,,2016-02-05 14:54:00,
2016-02-05 10:04:00,26.0,21.0,30.47,West,259,2.0,5.0,82,-99.99,,,-99.99,,2016-02-05 15:04:00,
2016-02-05 10:13:00,27.0,21.0,30.47,ESE,116,1.0,5.0,79,-99.99,,,-99.99,,2016-02-05 15:13:00,
2016-02-05 10:24:00,28.0,22.0,30.47,SE,131,3.0,6.0,79,-99.99,,,-99.99,,2016-02-05 15:24:00,
2016-02-05 10:34:00,28.0,22.0,30.47,SE,131,3.0,6.0,79,-99.99,,,-99.99,,2016-02-05 15:34:00,
2016-02-05 10:45:00,29.0,23.0,30.47,SSE,150,1.0,5.0,77,-99.99,,,-99.99,,2016-02-05 15:45:00,
2016-02-05 10:55:00,30.0,23.0,30.47,WSW,254,1.0,6.0,74,-99.99,,,-99.99,,2016-02-05 15:55:00,
2016-02-05 11:04:00,30.0,23.0,30.47,WSW,254,1.0,6.0,74,-99.99,,,-99.99,,2016-02-05 16:04:00,
2016-02-05 11:14:00,32.0,24.0,30.47,South,174,2.0,5.0,71,-99.99,,,-99.99,,2016-02-05 16:14:00,
2016-02-05 11:24:00,32.0,22.0,30.47,SE,131,4.0,8.0,67,-99.99,,,-99.99,,2016-02-05 16:24:00,
2016-02-05 11:34:00,32.0,22.0,30.47,SE,131,4.0,8.0,67,-99.99,,,-99.99,,2016-02-05 16:34:00,
2016-02-05 11:47:00,34.0,23.0,30.46,SSE,153,1.0,6.0,64,-99.99,,,-99.99,,2016-02-05 16:47:00,
2016-02-05 11:54:00,35.0,24.0,30.46,WSW,250,4.0,8.0,63,-99.99,,,-99.99,,2016-02-05 16:54:00,
2016-02-05 12:05:00,35.0,24.0,30.46,WSW,250,4.0,8.0,63,-99.99,,,-99.99,,2016-02-05 17:05:00,
2016-02-05 12:13:00,36.0,23.0,30.45,ESE,117,2.0,8.0,59,-99.99,,,-99.99,,2016-02-05 17:13:00,
2016-02-05 12:23:00,36.0,22.0,30.44,ESE,122,2.0,7.0,56,-99.99,,,-99.99,,2016-02-05 17:23:00,
2016-02-05 12:34:00,36.0,22.0,30.44,ESE,122,2.0,7.0,56,-99.99,,,-99.99,,2016-02-05 17:34:00,
2016-02-05 12:44:00,37.0,21.0,30.43,ESE,118,1.0,7.0,53,-99.99,,,-99.99,,2016-02-05 17:44:00,
2016-02-05 12:54:00,38.0,22.0,30.42,WSW,250,2.0,7.0,51,-99.99,,,-99.99,,2016-02-05 17:54:00,
2016-02-05 13:04:00,38.0,22.0,30.42,WSW,250,2.0,7.0,51,-99.99,,,-99.99,,2016-02-05 18:04:00,
2016-02-05 13:13:00,38.0,21.0,30.41,SE,145,2.0,8.0,50,-99.99,,,-99.99,,2016-02-05 18:13:00,
2016-02-05 13:24:00,39.0,21.0,30.40,NW,311,3.0,10.0,49,-99.99,,,-99.99,,2016-02-05 18:24:00,
2016-02-05 13:34:00,39.0,21.0,30.40,NW,311,3.0,10.0,49,-99.99,,,-99.99,,2016-02-05 18:34:00,
2016-02-05 13:45:00,38.0,21.0,30.40,WNW,296,1.0,7.0,49,-99.99,,,-99.99,,2016-02-05 18:45:00,
2016-02-05 13:54:00,40.0,21.0,30.40,SW,228,5.0,7.0,47,-99.99,,,-99.99,,2016-02-05 18:54:00,
2016-02-05 14:05:00,40.0,21.0,30.40,SW,228,5.0,7.0,47,-99.99,,,-99.99,,2016-02-05 19:05:00,
2016-02-05 14:14:00,40.0,22.0,30.39,WSW,255,3.0,11.0,49,-99.99,,,-99.99,,2016-02-05 19:14:00,
2016-02-05 14:24:00,39.0,21.0,30.38,East,99,2.0,9.0,49,-99.99,,,-99.99,,2016-02-05 19:24:00,
2016-02-05 14:34:00,39.0,21.0,30.38,East,99,2.0,9.0,49,-99.99,,,-99.99,,2016-02-05 19:34:00,
2016-02-05 14:45:00,40.0,22.0,30.38,WSW,248,2.0,8.0,49,-99.99,,,-99.99,,2016-02-05 19:45:00,
2016-02-05 14:54:00,39.0,22.0,30.38,WNW,291,3.0,9.0,51,-99.99,,,-99.99,,2016-02-05 19:54:00,
2016-02-05 15:04:00,39.0,22.0,30.38,WNW,291,3.0,9.0,51,-99.99,,,-99.99,,2016-02-05 20:04:00,
2016-02-05 15:14:00,40.0,22.0,30.38,SW,235,3.0,13.0,49,-99.99,,,-99.99,,2016-02-05 20:14:00,
2016-02-05 15:24:00,40.0,22.0,30.37,ESE,122,3.0,7.0,49,-99.99,,,-99.99,,2016-02-05 20:24:00,
2016-02-05 15:34:00,40.0,22.0,30.37,ESE,122,3.0,7.0,49,-99.99,,,-99.99,,2016-02-05 20:34:00,
2016-02-05 15:45:00,41.0,23.0,30.37,ESE,117,4.0,9.0,48,-99.99,,,-99.99,,2016-02-05 20:45:00,
2016-02-05 15:54:00,41.0,22.0,30.37,SSE,149,5.0,12.0,47,-99.99,,,-99.99,,2016-02-05 20:54:00,
2016-02-05 16:04:00,41.0,22.0,30.37,SSE,149,5.0,12.0,47,-99.99,,,-99.99,,2016-02-05 21:04:00,
2016-02-05 16:14:00,40.0,22.0,30.38,WSW,248,5.0,9.0,48,-99.99,,,-99.99,,2016-02-05 21:14:00,
2016-02-05 16:24:00,40.0,22.0,30.37,SE,139,3.0,8.0,48,-99.99,,,-99.99,,2016-02-05 21:24:00,
2016-02-05 16:35:00,40.0,22.0,30.37,SE,139,3.0,8.0,48,-99.99,,,-99.99,,2016-02-05 21:35:00,
2016-02-05 16:45:00,41.0,21.0,30.37,West,270,5.0,11.0,45,-99.99,,,-99.99,,2016-02-05 21:45:00,
2016-02-05 16:54:00,41.0,22.0,30.37,East,80,4.0,11.0,46,-99.99,,,-99.99,,2016-02-05 21:54:00,
2016-02-05 17:05:00,41.0,22.0,30.37,East,80,4.0,11.0,46,-99.99,,,-99.99,,2016-02-05 22:05:00,
2016-02-05 17:14:00,41.0,21.0,30.37,WSW,243,4.0,8.0,45,-99.99,,,-99.99,,2016-02-05 22:14:00,
2016-02-05 17:25:00,41.0,22.0,30.38,WSW,243,2.0,4.0,46,-99.99,,,-99.99,,2016-02-05 22:25:00,
2016-02-05 17:35:00,41.0,22.0,30.38,WSW,243,2.0,4.0,46,-99.99,,,-99.99,,2016-02-05 22:35:00,
2016-02-05 17:45:00,41.0,21.0,30.37,SW,236,3.0,7.0,45,-99.99,,,-99.99,,2016-02-05 22:45:00,
2016-02-05 17:55:00,40.0,21.0,30.37,SSE,147,3.0,8.0,46,-99.99,,,-99.99,,2016-02-05 22:55:00,
2016-02-05 18:04:00,40.0,21.0,30.37,SSE,147,3.0,8.0,46,-99.99,,,-99.99,,2016-02-05 23:04:00,
2016-02-05 18:14:00,39.0,21.0,30.38,WSW,249,1.0,5.0,48,-99.99,,,-99.99,,2016-02-05 23:14:00,
2016-02-05 18:24:00,39.0,21.0,30.38,SE,139,0.0,4.0,49,-99.99,,,-99.99,,2016-02-05 23:24:00,
2016-02-05 18:34:00,39.0,21.0,30.38,SE,139,0.0,4.0,49,-99.99,,,-99.99,,2016-02-05 23:34:00,
2016-02-05 18:44:00,38.0,21.0,30.38,SSW,195,2.0,6.0,50,-99.99,,,-99.99,,2016-02-05 23:44:00,
2016-02-05 18:54:00,37.0,21.0,30.38,SE,143,2.0,6.0,53,-99.99,,,-99.99,,2016-02-05 23:54:00,
2016-02-05 19:04:00,37.0,21.0,30.38,SE,143,2.0,6.0,53,-99.99,,,-99.99,,2016-02-06 00:04:00,
2016-02-05 19:16:00,37.0,22.0,30.38,SSE,148,0.0,5.0,55,-99.99,,,-99.99,,2016-02-06 00:16:00,
2016-02-05 19:44:00,36.0,23.0,30.38,ESE,117,1.0,3.0,58,-99.99,,,-99.99,,2016-02-06 00:44:00,
2016-02-05 19:54:00,35.0,22.0,30.38,SSE,148,1.0,4.0,59,-99.99,,,-99.99,,2016-02-06 00:54:00,
2016-02-05 20:04:00,35.0,22.0,30.38,SSE,148,1.0,4.0,59,-99.99,,,-99.99,,2016-02-06 01:04:00,
2016-02-05 20:13:00,35.0,22.0,30.37,SE,132,0.0,5.0,58,-99.99,,,-99.99,,2016-02-06 01:13:00,
2016-02-05 20:24:00,35.0,22.0,30.37,SE,125,2.0,5.0,59,-99.99,,,-99.99,,2016-02-06 01:24:00,
2016-02-05 20:34:00,35.0,22.0,30.37,SE,125,2.0,5.0,59,-99.99,,,-99.99,,2016-02-06 01:34:00,
2016-02-05 20:44:00,35.0,23.0,30.36,SE,143,1.0,5.0,60,-99.99,,,-99.99,,2016-02-06 01:44:00,
2016-02-05 20:54:00,34.0,22.0,30.36,SE,139,2.0,4.0,61,-99.99,,,-99.99,,2016-02-06 01:54:00,
2016-02-05 21:04:00,34.0,22.0,30.36,SE,139,2.0,4.0,61,-99.99,,,-99.99,,2016-02-06 02:04:00,
2016-02-05 21:13:00,34.0,23.0,30.36,SE,131,1.0,6.0,63,-99.99,,,-99.99,,2016-02-06 02:13:00,
2016-02-05 21:24:00,34.0,22.0,30.36,ESE,122,3.0,7.0,62,-99.99,,,-99.99,,2016-02-06 02:24:00,
2016-02-05 21:34:00,34.0,22.0,30.36,ESE,122,3.0,7.0,62,-99.99,,,-99.99,,2016-02-06 02:34:00,
2016-02-05 21:54:00,33.0,22.0,30.36,ESE,122,1.0,4.0,64,-99.99,,,-99.99,,2016-02-06 02:54:00,
2016-02-05 22:04:00,33.0,22.0,30.36,ESE,122,1.0,4.0,64,-99.99,,,-99.99,,2016-02-06 03:04:00,
2016-02-05 22:13:00,33.0,22.0,30.35,ESE,117,2.0,4.0,63,-99.99,,,-99.99,,2016-02-06 03:13:00,
2016-02-05 22:24:00,33.0,22.0,30.35,SE,139,0.0,4.0,63,-99.99,,,-99.99,,2016-02-06 03:24:00,
2016-02-05 22:34:00,33.0,22.0,30.35,SE,139,0.0,4.0,63,-99.99,,,-99.99,,2016-02-06 03:34:00,
2016-02-05 22:44:00,33.0,22.0,30.35,SE,146,2.0,6.0,63,-99.99,,,-99.99,,2016-02-06 03:44:00,
2016-02-05 22:54:00,33.0,21.0,30.34,WSW,243,2.0,7.0,62,-99.99,,,-99.99,,2016-02-06 03:54:00,